Weather in Golun

Russia / Oryol Oblast     53°03′26″N   37°11′05″E
temp.,
°C
wind,
m/s
gust,
m/s
humid.,
%
clouds,
%
prec.,
mm/h
press.,
hPa
HPBL,
m
23 april, fri
fri2300:00+8s4118556 0.0 1018237
03:00+7s4118649 0.0 1018218
06:00+7s4118698 0.0 1018220
09:00+12s6116694 0.0 1017548
12:00+15s8104791 0.1 10152500
15:00+14s7105555 0.5 10141721
18:00+12w137699 0.9 1013241
21:00+8n3294100 7.6 1012101
24 april, sat
sat2400:00+7wsw3596100 1.6 1011421
03:00+5nw5793100 5.6 1010896
06:00+4w4896100 0.8 1011568
09:00+6w5772100 0.9 10101135
12:00+8w785793 0.6 10091707
15:00+7w81052100 1.5 10102076
18:00+6w795949 0.2 10101426
21:00+3w81280100 0.4 1011765
25 april, sun
sun2500:00+1w81495100 0.4 1012845
03:00+1w715857 0.5 1014600
06:000w612845 0.0 1015470
09:00+4wsw711665 0.0 10151158
12:00+7w8114579 0.0 10152124
15:00+8sw81148100 0.3 10141934
18:00+6ssw7117999 0.2 10131106
21:00+2w5109018 0.9 1014473
26 april, mon
mon2600:00+1wsw37935 0.0 1015257
03:000wsw37905 0.0 1015196
06:000wsw37865 0.0 1015235
09:00+4wsw45645 0.0 1015925
12:00+7wsw565197 0.6 10141740
15:00+8w4647100 1.3 10131891
18:00+8w354521 0.0 10112157
21:00+4w2262100 0.1 101231
27 april, tue
tue2700:00+2w3577100 0.0 1012131
03:00+2wnw239898 0.6 1012121
06:00+1w3599100 1.0 1012169
09:00+4wsw56745 1.8 1012831
12:00+6wsw6856100 0.7 10111801
15:00+7wsw785199 2.2 10111858
18:00+6w5761100 1.5 10111163
21:00+3w38816 1.9 1013181